FENGYUN 1C DEB

基本信息
目录编号:
31451
目录名称:
FENGYUN 1C DEB
国际标识:
1999-025BUP
轨道中心:
EARTH
物体状态:
在轨
发射日期:
1999-05-10 UTC
轨道信息
数据来源: 国际轨道数据
星历时间: 2026-09-04T16:36:34+0800
半长轴: 7224.079km
偏心率: 0.0031657
轨道倾角: 98.734°
近地点辐角: 174.363°
升交点赤经: 288.699°
平近点角: 249.177°
近地点: 823.072km
远地点: 868.812km
周期: 101.844分钟
每日圈数: 14.139338
详细信息
发射场:
TSC
轨道高度:
LEO
数据来源:
AOE Integration Group
参考系:
TEME
时间系统:
UTC
历元类型:
SGP4
2D轨道图
3D轨道图
轨道高度分析图
轨道倾角分析图
轨道综合分析图
查看轨道综合分析图